{"data":{"norad_id":58075,"intl_designator":"2023-160A","name":"STARLINK-30604","alt_names":[],"object_type":"PAYLOAD","status":"ACTIVE","operator":null,"country":"US","launch_date":"2023-10-18","launch_site_code":"AFETR","launch_vehicle":null,"mission":null,"orbit_class":"UNKNOWN","rcs_meters":null,"size_class":null,"mass_kg":null,"dimensions":null,"purposes":["comms"],"wikipedia_slug":null,"has_3d_model":false,"image_url":null,"decayed_at":null,"tle_current":{"epoch":"2026-09-20T17:02:58.834752Z","epoch_age_seconds":119831,"freshness":"FRESH","line1":"1 58075U 23160A   26263.71040318  .00000064  00000+0  11841-4 0  9998","line2":"2 58075  43.0016  56.3537 0001398 266.3652  93.7040 15.27576542162771","mean_motion":15.27576542,"eccentricity":0.0001398,"inclination_deg":43.0016,"raan_deg":56.3537,"arg_perigee_deg":266.3652,"mean_anomaly_deg":93.704,"bstar":1.1841e-5,"rev_number":16277,"period_min":94.266962106832,"perigee_km":482.10025529141,"apogee_km":484.01864581898,"semimajor_km":6861.1964505552,"source":"CELESTRAK","updated_at":"2026-09-21T09:00:33.781280Z"}}}